Regional Weather Roundup
Issued by NWS Huntsville, AL

Home | Current Version | Previous Version | Text Only | Print | Product List | Glossary On
Versions: 1 2 3 4 5 6 7 8 9 10 11 12 13 14 15 16 17 18 19 20 21 22 23 24 25 26 27 28 29 30 31 32 33 34 35 36 37 38 39 40 41 42 43 44 45 46 47 48 49 50
000
ASUS44 KHUN 261310
RWRHUN

WEATHER ROUNDUP FOR THE TENNESSEE VALLEY
NATIONAL WEATHER SERVICE HUNTSVILLE AL
800 AM CDT TUE MAY 26 2015

ALZ001>004-261400-
NORTHWEST ALABAMA

CITY           SKY/WX    TMP DP  RH WIND       PRES   REMARKS
BANKHEAD NF      N/A     69  67  94 SW3         N/A
RUSSELLVILLE     N/A     70 N/A N/A MISG        N/A
SHOALS AIRPORT CLOUDY    72  67  84 S8        30.11R
SHOALS TVA RES   N/A     70 N/A N/A MISG        N/A
$$

ALZ005>007-016-261400-
NORTH CENTRAL ALABAMA

CITY           SKY/WX    TMP DP  RH WIND       PRES   REMARKS
DECATUR AP     PTSUNNY   72  68  87 SE12      30.14R
HUNTSVILLE AP  PTSUNNY   74  68  81 S13       30.14R
HUN NWS/UAH      N/A     72  67  84 S8          N/A
MERIDIANVILLE  CLOUDY    72  64  78 SE9       30.15R
REDSTONE ARSN  CLOUDY    72  70  94 SE8       30.14R
VINEMONT AP    CLOUDY    69  67  93 SE7       30.18R
$$

ALZ008>010-261400-
NORTHEAST ALABAMA

CITY           SKY/WX    TMP DP  RH WIND       PRES   REMARKS
ALBERTVILLE    CLOUDY    72  72 100 S12       30.18R
FORT PAYNE     CLOUDY    72  64  78 S7        30.18S
SCOTTSBORO HCN   N/A     72 N/A N/A MISG        N/A
VALLEY HEAD      N/A     72 N/A N/A MISG        N/A
$$

TNZ076-096-097-261400-
SOUTHEASTERN MIDDLE TENNESSEE

CITY           SKY/WX    TMP DP  RH WIND       PRES   REMARKS
TULLAHOMA      MOSUNNY   70  66  88 S8        30.17R
WINCHESTER     PTSUNNY   72  68  88 SE8       30.17R
$$

...SURROUNDING SITES...

CITY           SKY/WX    TMP DP  RH WIND       PRES   REMARKS
ATLANTA        CLOUDY    72  68  87 S9        30.24R
ANNISTON       PTSUNNY   75  68  78 SE9       30.19R
BIRMINGHAM     CLOUDY    72  69  90 SE10G18   30.18S
CHATTANOOGA    CLOUDY    71  69  93 SE5       30.20R FOG
CORINTH        CLOUDY    70  66  88 S12       30.03R
DALTON         CLOUDY    70  70 100 S7        30.22R
GADSDEN        CLOUDY   N/A N/A N/A S5        30.17R
GOLDEN TRNGL   PTSUNNY   66  64  94 SE6       30.07F
HALEYVILLE     CLOUDY    68  68 100 S13       30.14S
JACKSON TN     CLOUDY    71  65  81 S9        30.01R
LEWISBURG      FAIR      71  66  84 S15       30.11R
MEMPHIS        CLOUDY    67  63  87 W8        30.01R
NASHVILLE      PTSUNNY   73  67  81 S14G23    30.10S
OXFORD MS      FAIR      63  63 100 SE9G16    30.03F
ROME           CLOUDY    73  70  90 S5        30.20R
SAVANNAH       PTSUNNY   68  32  26 SE8       30.04F
TUPELO         CLOUDY    68  64  87 S10       30.06R
TUSCALOOSA     CLOUDY    73  69  87 SE8       30.13S
$$

...GULF COAST WEATHER...

CITY           SKY/WX    TMP DP  RH WIND       PRES   REMARKS
GULFPORT       CLOUDY    67  63  87 N9        30.15R
PASCAGOULA     LGT RAIN  68  66  93 NW10      30.14R
MOBILE         TSTM      69  68  96 W12G18    30.16R FOG
GULF SHORES    PTSUNNY   81  76  85 SE13G20   30.11R
PENSACOLA      PTSUNNY   82  77  84 SE13      30.11R HX  90
DESTIN         MOSUNNY   82  76  81 SE10      30.13R
PANAMA CITY    SUNNY     82  75  78 SE9       30.15S
APPALACHICOLA  MOSUNNY   85  75  72 SE12      30.17R HX  93
$$




USA.gov is the U.S. government's official web portal to all federal, state and local government web resources and services.